sat.trackr.live / text

‹ back to catalog

STARLINK-35851

NORAD 66356 · 2025-254J

PAYLOAD ACTIVE UNKNOWN

§ Identity

Operator
Country
US
Launch date
2025-11-06
Launch site
AFWTR
Launch vehicle
Mass (kg)
RCS (m²)

Purposes: comms

External: N2YO · Heavens-Above · Gunter

§ Orbital elements

Epoch: 2026-05-24T23:33:26.341632Z

Period
94.10 min
Inclination
53.1585°
Eccentricity
0.0001199
Mean motion
15.30205929 rev/d
Perigee alt
474.4 km
Apogee alt
476.0 km
Semi-major
6,853.3 km
B*
8.4228e-4
RAAN
238.2741°
Arg perigee
86.0625°
Mean anomaly
274.0512°
Rev number
3,065

§ Raw data

STARLINK-358511 66356U 25254J   26144.98155488  .00024674  00000+0  84228-3 0  99982 66356  53.1585 238.2741 0001199  86.0625 274.0512 15.30205929 30650

JSON: /api/v1/satellites/66356 · /tle

For live sub-satellite position, see the globe view (requires WebGL).

§ Visibility from observer

Set your observer location to see the next 7 days of passes ≥ 10°. The values pass through the URL so the page stays shareable.

No JS? Fill the form by hand. The geolocation button needs JavaScript.